QPF
0.01 0.01 0.02 0.02 0.02 0.02 0.02 0.02 0.02 0.02 0.03 0.01 0.01 0.01 0.01 0.02 0.02 0.02 0.02 0.02 0.02 0.02 0.01 0.01 0.01 0.01 0.01 0.01 0.01 0.01 0.02 0.00 0.00 0.00 0.00 0.01 0.01 0.01 0.01 0.01 0.00 0.00 0.00
0.01 0.01 0.01 0.02 0.02 0.02 0.01 0.01 0.02 0.03 0.04 0.03 0.02 0.01 0.02 0.02 0.01 0.02 0.03 0.03 0.02 0.02 0.02 0.02 0.01 0.01 0.01 0.01 0.01 0.01 0.01 0.01 0.01 0.01 0.00 0.00 0.01 0.01 0.01 0.01 0.00 0.00 0.00
0.02 0.03 0.03 0.03 0.02 0.02 0.02 0.03 0.03 0.04 0.04 0.03 0.03 0.02 0.02 0.03 0.02 0.03 0.03 0.03 0.04 0.02 0.02 0.03 0.02 0.02 0.02 0.02 0.02 0.02 0.02 0.01 0.01 0.01 0.01 0.01 0.01 0.01 0.01 0.01 0.01 0.00 0.00
0.04 0.05 0.05 0.03 0.02 0.01 0.01 0.04 0.04 0.06 0.06 0.06 0.05 0.03 0.02 0.04 0.03 0.03 0.02 0.02 0.03 0.02 0.02 0.03 0.03 0.03 0.03 0.02 0.02 0.02 0.03 0.02 0.02 0.02 0.02 0.01 0.01 0.01 0.01 0.01 0.01 0.01 0.01
0.04 0.05 0.05 0.06 0.03 0.02 0.03 0.02 0.04 0.07 0.07 0.08 0.05 0.05 0.03 0.03 0.03 0.02 0.02 0.02 0.03 0.03 0.03 0.03 0.02 0.02 0.02 0.02 0.03 0.03 0.04 0.04 0.04 0.03 0.03 0.03 0.02 0.01 0.01 0.01 0.02 0.02 0.02
0.04 0.05 0.05 0.07 0.04 0.04 0.05 0.04 0.06 0.07 0.07 0.09 0.05 0.05 0.03 0.02 0.02 0.03 0.02 0.02 0.02 0.02 0.02 0.03 0.02 0.01 0.01 0.01 0.02 0.03 0.03 0.04 0.04 0.04 0.03 0.03 0.03 0.03 0.02 0.01 0.01 0.02 0.02
0.04 0.05 0.05 0.07 0.06 0.06 0.07 0.05 0.04 0.06 0.06 0.07 0.08 0.08 0.06 0.02 0.02 0.02 0.03 0.02 0.02 0.02 0.02 0.03 0.02 0.02 0.02 0.01 0.01 0.02 0.02 0.03 0.04 0.04 0.03 0.04 0.04 0.04 0.03 0.02 0.01 0.01 0.01
0.05 0.04 0.04 0.05 0.07 0.08 0.09 0.08 0.07 0.06 0.06 0.08 0.09 0.10 0.08 0.05 0.02 0.01 0.01 0.01 0.02 0.02 0.02 0.02 0.03 0.03 0.03 0.03 0.02 0.02 0.03 0.03 0.05 0.05 0.05 0.05 0.04 0.03 0.03 0.03 0.02 0.02 0.01
0.05 0.04 0.05 0.06 0.09 0.08 0.09 0.09 0.09 0.08 0.08 0.08 0.08 0.10 0.09 0.07 0.04 0.01 0.00 0.00 0.01 0.03 0.02 0.02 0.02 0.03 0.03 0.03 0.03 0.02 0.01 0.02 0.04 0.05 0.05 0.06 0.05 0.03 0.03 0.04 0.03 0.03 0.02
0.05 0.04 0.05 0.07 0.09 0.08 0.08 0.08 0.07 0.07 0.08 0.07 0.08 0.07 0.08 0.08 0.08 0.04 0.01 0.01 0.01 0.02 0.03 0.03 0.02 0.03 0.02 0.02 0.03 0.01 0.01 0.01 0.02 0.03 0.05 0.06 0.05 0.04 0.04 0.04 0.04 0.04 0.04
0.06 0.05 0.05 0.07 0.08 0.07 0.07 0.07 0.09 0.08 0.07 0.07 0.08 0.08 0.08 0.08 0.07 0.06 0.05 0.03 0.02 0.00 0.01 0.01 0.03 0.03 0.03 0.03 0.03 0.02 0.02 0.02 0.02 0.02 0.03 0.04 0.05 0.05 0.05 0.06 0.07 0.08 0.07
0.07 0.07 0.06 0.07 0.08 0.06 0.08 0.10 0.11 0.09 0.08 0.09 0.09 0.09 0.09 0.08 0.08 0.08 0.07 0.06 0.04 0.01 0.01 0.02 0.03 0.03 0.03 0.02 0.02 0.01 0.01 0.02 0.02 0.02 0.01 0.02 0.04 0.05 0.06 0.06 0.07 0.07 0.06
0.06 0.06 0.07 0.08 0.09 0.08 0.09 0.10 0.10 0.10 0.11 0.11 0.09 0.07 0.06 0.06 0.06 0.07 0.08 0.07 0.05 0.02 0.03 0.02 0.02 0.02 0.01 0.02 0.03 0.01 0.01 0.01 0.02 0.02 0.02 0.02 0.02 0.03 0.02 0.04 0.05 0.05 0.05
0.06 0.06 0.07 0.07 0.09 0.10 0.08 0.09 0.10 0.11 0.11 0.11 0.08 0.09 0.07 0.05 0.05 0.06 0.08 0.09 0.07 0.06 0.05 0.04 0.03 0.03 0.04 0.05 0.03 0.02 0.02 0.02 0.01 0.01 0.02 0.02 0.03 0.03 0.02 0.03 0.03 0.03 0.03
0.06 0.05 0.06 0.06 0.07 0.09 0.10 0.10 0.10 0.10 0.11 0.10 0.08 0.09 0.07 0.07 0.07 0.07 0.08 0.10 0.11 0.11 0.08 0.07 0.05 0.04 0.05 0.04 0.03 0.03 0.03 0.03 0.02 0.03 0.03 0.02 0.02 0.02 0.02 0.03 0.04 0.04 0.03
0.06 0.06 0.07 0.06 0.06 0.07 0.09 0.10 0.10 0.10 0.10 0.08 0.08 0.08 0.09 0.09 0.09 0.09 0.08 0.09 0.10 0.11 0.10 0.07 0.06 0.05 0.04 0.03 0.04 0.04 0.04 0.05 0.04 0.04 0.03 0.03 0.04 0.04 0.04 0.05 0.06 0.06 0.04
0.08 0.09 0.08 0.07 0.07 0.06 0.08 0.09 0.08 0.09 0.10 0.11 0.10 0.09 0.10 0.12 0.11 0.11 0.10 0.09 0.09 0.10 0.10 0.08 0.08 0.07 0.07 0.08 0.07 0.05 0.05 0.06 0.06 0.06 0.06 0.06 0.06 0.06 0.06 0.05 0.04 0.03 0.03
0.09 0.10 0.09 0.06 0.06 0.06 0.08 0.08 0.08 0.09 0.10 0.10 0.10 0.11 0.11 0.12 0.12 0.12 0.12 0.12 0.13 0.14 0.14 0.14 0.14 0.11 0.10 0.08 0.07 0.07 0.07 0.07 0.07 0.08 0.07 0.07 0.07 0.06 0.06 0.06 0.05 0.05 0.04
0.08 0.07 0.06 0.07 0.06 0.07 0.08 0.09 0.09 0.09 0.10 0.12 0.14 0.15 0.15 0.16 0.16 0.16 0.16 0.17 0.18 0.17 0.17 0.15 0.14 0.12 0.09 0.07 0.07 0.06 0.05 0.06 0.06 0.06 0.06 0.06 0.06 0.06 0.06 0.06 0.06 0.06 0.06
0.07 0.06 0.05 0.06 0.06 0.08 0.08 0.08 0.09 0.09 0.10 0.13 0.14 0.13 0.14 0.15 0.15 0.16 0.16 0.16 0.14 0.13 0.11 0.10 0.09 0.09 0.08 0.07 0.07 0.07 0.07 0.06 0.06 0.05 0.04 0.04 0.05 0.07 0.08 0.08 0.07 0.07 0.08
0.11 0.11 0.07 0.06 0.07 0.11 0.10 0.09 0.10 0.09 0.09 0.08 0.07 0.08 0.09 0.10 0.11 0.11 0.11 0.10 0.11 0.11 0.11 0.11 0.10 0.10 0.10 0.09 0.10 0.09 0.07 0.05 0.05 0.04 0.05 0.05 0.06 0.06 0.06 0.05 0.05 0.05 0.06
0.07 0.07 0.05 0.05 0.05 0.06 0.05 0.04 0.05 0.08 0.07 0.07 0.06 0.06 0.06 0.07 0.05 0.04 0.04 0.05 0.09 0.10 0.11 0.12 0.12 0.11 0.11 0.11 0.09 0.07 0.06 0.06 0.06 0.06 0.06 0.06 0.05 0.06 0.06 0.06 0.06 0.05 0.05
0.06 0.06 0.05 0.05 0.05 0.07 0.06 0.04 0.03 0.05 0.07 0.06 0.05 0.04 0.04 0.03 0.04 0.05 0.05 0.06 0.07 0.08 0.09 0.11 0.13 0.13 0.12 0.11 0.10 0.10 0.09 0.08 0.08 0.07 0.07 0.07 0.07 0.07 0.07 0.05 0.05 0.04 0.03
0.11 0.10 0.09 0.08 0.08 0.11 0.12 0.09 0.08 0.08 0.10 0.10 0.10 0.08 0.08 0.09 0.09 0.11 0.12 0.13 0.13 0.13 0.13 0.13 0.12 0.10 0.09 0.10 0.11 0.11 0.11 0.10 0.09 0.07 0.06 0.06 0.06 0.06 0.06 0.05 0.04 0.03 0.02
0.09 0.10 0.12 0.14 0.16 0.20 0.21 0.16 0.14 0.12 0.11 0.11 0.12 0.12 0.12 0.11 0.10 0.10 0.10 0.11 0.10 0.10 0.10 0.11 0.10 0.09 0.10 0.11 0.12 0.13 0.14 0.15 0.14 0.11 0.08 0.07 0.08 0.07 0.07 0.07 0.06 0.06 0.04
0.08 0.12 0.16 0.19 0.17 0.17 0.18 0.15 0.11 0.10 0.10 0.09 0.09 0.11 0.12 0.12 0.12 0.12 0.10 0.10 0.10 0.10 0.11 0.12 0.12 0.13 0.13 0.16 0.19 0.18 0.21 0.23 0.22 0.20 0.17 0.14 0.14 0.14 0.14 0.13 0.12 0.10 0.08
MSLP
1017.74 1017.99 1018.17 1018.30 1018.40 1018.48 1018.58 1018.68 1018.80 1018.91 1018.98 1019.02 1019.02 1018.99 1018.98 1019.01 1019.12 1019.33 1019.65 1020.05 1020.48 1020.90 1021.27 1021.55 1021.73 1021.83 1021.87 1021.89 1021.92 1021.99 1022.10 1022.25 1022.42 1022.60 1022.77 1022.92 1023.04 1023.16 1023.28 1023.41 1023.55 1023.71 1023.87
1017.61 1017.84 1018.01 1018.14 1018.23 1018.32 1018.43 1018.57 1018.72 1018.88 1019.02 1019.11 1019.16 1019.17 1019.16 1019.17 1019.23 1019.36 1019.58 1019.89 1020.25 1020.63 1020.99 1021.30 1021.55 1021.73 1021.85 1021.94 1022.02 1022.10 1022.20 1022.32 1022.47 1022.62 1022.77 1022.92 1023.06 1023.20 1023.34 1023.48 1023.63 1023.78 1023.92
1017.45 1017.65 1017.81 1017.93 1018.04 1018.15 1018.28 1018.46 1018.66 1018.87 1019.07 1019.22 1019.32 1019.36 1019.35 1019.32 1019.30 1019.34 1019.46 1019.66 1019.93 1020.26 1020.61 1020.95 1021.26 1021.52 1021.73 1021.90 1022.03 1022.14 1022.25 1022.36 1022.48 1022.60 1022.73 1022.88 1023.03 1023.18 1023.34 1023.50 1023.65 1023.80 1023.93
1017.23 1017.41 1017.56 1017.68 1017.81 1017.95 1018.12 1018.33 1018.58 1018.85 1019.10 1019.30 1019.44 1019.49 1019.47 1019.41 1019.33 1019.28 1019.29 1019.38 1019.56 1019.82 1020.14 1020.50 1020.85 1021.19 1021.48 1021.72 1021.92 1022.07 1022.20 1022.31 1022.41 1022.52 1022.63 1022.77 1022.92 1023.09 1023.26 1023.43 1023.59 1023.74 1023.87
1016.95 1017.11 1017.25 1017.39 1017.53 1017.71 1017.92 1018.17 1018.46 1018.77 1019.05 1019.30 1019.46 1019.53 1019.52 1019.43 1019.30 1019.17 1019.08 1019.07 1019.16 1019.34 1019.61 1019.95 1020.33 1020.71 1021.06 1021.37 1021.63 1021.84 1022.00 1022.12 1022.23 1022.33 1022.44 1022.58 1022.73 1022.90 1023.09 1023.27 1023.45 1023.60 1023.73
1016.61 1016.75 1016.89 1017.04 1017.22 1017.42 1017.66 1017.94 1018.26 1018.59 1018.90 1019.16 1019.35 1019.45 1019.44 1019.35 1019.19 1019.01 1018.86 1018.76 1018.75 1018.85 1019.05 1019.34 1019.70 1020.09 1020.47 1020.83 1021.14 1021.40 1021.61 1021.77 1021.90 1022.02 1022.15 1022.29 1022.45 1022.63 1022.83 1023.03 1023.21 1023.38 1023.52
1016.22 1016.34 1016.49 1016.65 1016.85 1017.07 1017.33 1017.63 1017.95 1018.28 1018.61 1018.89 1019.10 1019.22 1019.25 1019.18 1019.03 1018.83 1018.64 1018.47 1018.38 1018.39 1018.49 1018.70 1019.00 1019.35 1019.73 1020.11 1020.47 1020.78 1021.04 1021.25 1021.43 1021.59 1021.75 1021.91 1022.09 1022.28 1022.49 1022.69 1022.89 1023.08 1023.23
1015.81 1015.91 1016.04 1016.22 1016.42 1016.65 1016.92 1017.21 1017.52 1017.85 1018.17 1018.46 1018.70 1018.86 1018.94 1018.92 1018.81 1018.64 1018.43 1018.23 1018.06 1017.97 1017.97 1018.07 1018.27 1018.55 1018.89 1019.27 1019.64 1020.00 1020.32 1020.60 1020.85 1021.07 1021.27 1021.46 1021.66 1021.86 1022.08 1022.29 1022.50 1022.69 1022.86
1015.40 1015.46 1015.57 1015.73 1015.93 1016.15 1016.41 1016.68 1016.97 1017.28 1017.59 1017.89 1018.16 1018.38 1018.53 1018.59 1018.56 1018.44 1018.25 1018.03 1017.81 1017.63 1017.51 1017.49 1017.57 1017.76 1018.03 1018.37 1018.74 1019.13 1019.52 1019.87 1020.19 1020.48 1020.73 1020.97 1021.19 1021.40 1021.61 1021.82 1022.03 1022.22 1022.41
1015.00 1015.01 1015.08 1015.21 1015.37 1015.57 1015.79 1016.03 1016.29 1016.57 1016.87 1017.19 1017.50 1017.78 1018.02 1018.18 1018.24 1018.20 1018.07 1017.86 1017.61 1017.35 1017.14 1016.99 1016.95 1017.03 1017.21 1017.50 1017.87 1018.28 1018.71 1019.13 1019.52 1019.87 1020.18 1020.45 1020.69 1020.90 1021.11 1021.30 1021.49 1021.68 1021.86
1014.64 1014.57 1014.58 1014.64 1014.76 1014.91 1015.09 1015.28 1015.51 1015.77 1016.06 1016.39 1016.74 1017.09 1017.42 1017.68 1017.86 1017.92 1017.86 1017.68 1017.43 1017.13 1016.84 1016.60 1016.45 1016.42 1016.53 1016.76 1017.09 1017.51 1017.97 1018.43 1018.88 1019.28 1019.63 1019.93 1020.17 1020.38 1020.56 1020.73 1020.89 1021.05 1021.22
1014.33 1014.16 1014.08 1014.06 1014.11 1014.20 1014.32 1014.47 1014.66 1014.89 1015.18 1015.52 1015.91 1016.32 1016.73 1017.10 1017.38 1017.54 1017.56 1017.45 1017.23 1016.93 1016.60 1016.30 1016.08 1015.98 1016.01 1016.19 1016.49 1016.89 1017.35 1017.84 1018.31 1018.74 1019.11 1019.41 1019.65 1019.84 1019.99 1020.11 1020.24 1020.36 1020.50
1014.09 1013.81 1013.62 1013.51 1013.47 1013.48 1013.55 1013.66 1013.81 1014.02 1014.29 1014.64 1015.05 1015.51 1015.98 1016.43 1016.80 1017.05 1017.16 1017.13 1016.97 1016.70 1016.39 1016.08 1015.83 1015.69 1015.68 1015.82 1016.08 1016.45 1016.89 1017.37 1017.83 1018.25 1018.61 1018.90 1019.12 1019.28 1019.39 1019.48 1019.56 1019.64 1019.74
1013.95 1013.56 1013.25 1013.04 1012.91 1012.85 1012.86 1012.92 1013.04 1013.23 1013.49 1013.83 1014.24 1014.71 1015.21 1015.70 1016.13 1016.45 1016.65 1016.70 1016.62 1016.43 1016.18 1015.92 1015.69 1015.56 1015.54 1015.65 1015.88 1016.20 1016.60 1017.03 1017.45 1017.84 1018.16 1018.42 1018.61 1018.73 1018.81 1018.86 1018.90 1018.94 1018.99
1013.95 1013.45 1013.04 1012.74 1012.53 1012.41 1012.36 1012.39 1012.47 1012.63 1012.86 1013.18 1013.56 1014.01 1014.50 1014.98 1015.43 1015.79 1016.05 1016.18 1016.19 1016.11 1015.96 1015.79 1015.64 1015.56 1015.56 1015.66 1015.86 1016.13 1016.47 1016.82 1017.17 1017.49 1017.76 1017.97 1018.13 1018.23 1018.28 1018.31 1018.32 1018.33 1018.34
1014.13 1013.55 1013.07 1012.69 1012.42 1012.24 1012.16 1012.15 1012.20 1012.33 1012.52 1012.79 1013.12 1013.51 1013.94 1014.38 1014.80 1015.16 1015.44 1015.64 1015.75 1015.77 1015.75 1015.70 1015.66 1015.66 1015.71 1015.82 1016.00 1016.22 1016.47 1016.74 1017.00 1017.23 1017.43 1017.60 1017.72 1017.80 1017.85 1017.87 1017.87 1017.87 1017.86
1014.52 1013.91 1013.38 1012.97 1012.66 1012.45 1012.34 1012.30 1012.33 1012.41 1012.56 1012.76 1013.02 1013.32 1013.65 1014.00 1014.35 1014.67 1014.95 1015.18 1015.36 1015.50 1015.60 1015.68 1015.77 1015.86 1015.97 1016.11 1016.26 1016.43 1016.60 1016.77 1016.93 1017.08 1017.20 1017.32 1017.41 1017.49 1017.55 1017.59 1017.61 1017.61 1017.60
1015.12 1014.52 1014.01 1013.59 1013.27 1013.05 1012.93 1012.87 1012.87 1012.92 1013.01 1013.14 1013.30 1013.49 1013.71 1013.95 1014.20 1014.44 1014.69 1014.92 1015.14 1015.36 1015.57 1015.76 1015.96 1016.15 1016.32 1016.48 1016.62 1016.74 1016.83 1016.90 1016.96 1017.02 1017.08 1017.15 1017.23 1017.32 1017.41 1017.48 1017.54 1017.56 1017.56
1015.92 1015.38 1014.91 1014.52 1014.22 1014.01 1013.88 1013.81 1013.79 1013.81 1013.85 1013.91 1013.98 1014.07 1014.16 1014.28 1014.41 1014.56 1014.73 1014.94 1015.17 1015.43 1015.70 1015.98 1016.26 1016.52 1016.75 1016.92 1017.04 1017.11 1017.13 1017.11 1017.09 1017.07 1017.07 1017.11 1017.18 1017.29 1017.40 1017.52 1017.62 1017.68 1017.70
1016.87 1016.42 1016.01 1015.68 1015.42 1015.23 1015.11 1015.04 1015.00 1014.99 1015.00 1015.00 1015.00 1014.99 1014.98 1014.98 1015.00 1015.05 1015.14 1015.28 1015.49 1015.74 1016.04 1016.36 1016.68 1016.98 1017.22 1017.40 1017.49 1017.51 1017.47 1017.38 1017.29 1017.20 1017.16 1017.17 1017.24 1017.35 1017.50 1017.66 1017.80 1017.90 1017.93
1017.88 1017.54 1017.23 1016.96 1016.74 1016.58 1016.47 1016.40 1016.36 1016.34 1016.32 1016.29 1016.24 1016.18 1016.09 1016.01 1015.93 1015.88 1015.89 1015.95 1016.09 1016.30 1016.58 1016.88 1017.20 1017.49 1017.73 1017.88 1017.95 1017.92 1017.83 1017.68 1017.53 1017.39 1017.31 1017.29 1017.35 1017.48 1017.64 1017.82 1017.99 1018.10 1018.16
1018.88 1018.66 1018.44 1018.24 1018.06 1017.92 1017.82 1017.76 1017.72 1017.70 1017.67 1017.64 1017.58 1017.49 1017.38 1017.24 1017.10 1016.98 1016.90 1016.88 1016.94 1017.07 1017.28 1017.53 1017.79 1018.04 1018.23 1018.35 1018.37 1018.31 1018.17 1017.98 1017.78 1017.61 1017.49 1017.45 1017.49 1017.59 1017.75 1017.93 1018.10 1018.22 1018.27
1019.81 1019.69 1019.55 1019.41 1019.27 1019.15 1019.05 1018.99 1018.96 1018.94 1018.94 1018.92 1018.88 1018.81 1018.70 1018.55 1018.38 1018.21 1018.07 1017.97 1017.93 1017.97 1018.08 1018.24 1018.42 1018.59 1018.72 1018.78 1018.76 1018.65 1018.48 1018.26 1018.03 1017.82 1017.67 1017.59 1017.60 1017.67 1017.80 1017.95 1018.09 1018.18 1018.22
1020.64 1020.60 1020.53 1020.42 1020.31 1020.20 1020.10 1020.04 1020.01 1020.01 1020.03 1020.05 1020.05 1020.02 1019.94 1019.81 1019.64 1019.45 1019.26 1019.10 1018.98 1018.91 1018.91 1018.96 1019.03 1019.11 1019.16 1019.16 1019.09 1018.95 1018.74 1018.50 1018.25 1018.02 1017.84 1017.72 1017.67 1017.69 1017.76 1017.85 1017.94 1017.99 1017.99
1021.36 1021.38 1021.36 1021.29 1021.19 1021.08 1020.98 1020.91 1020.88 1020.90 1020.94 1020.99 1021.04 1021.06 1021.03 1020.94 1020.79 1020.60 1020.38 1020.16 1019.97 1019.81 1019.70 1019.64 1019.61 1019.59 1019.55 1019.49 1019.38 1019.21 1018.99 1018.74 1018.47 1018.22 1018.00 1017.84 1017.73 1017.68 1017.68 1017.69 1017.70 1017.70 1017.65
1022.01 1022.09 1022.10 1022.05 1021.96 1021.86 1021.75 1021.68 1021.64 1021.66 1021.71 1021.79 1021.88 1021.93 1021.94 1021.89 1021.77 1021.59 1021.36 1021.10 1020.85 1020.62 1020.42 1020.25 1020.13 1020.02 1019.92 1019.80 1019.66 1019.47 1019.24 1018.98 1018.71 1018.44 1018.20 1017.99 1017.82 1017.70 1017.61 1017.53 1017.47 1017.39 1017.29
Thickness
5750 5749 5747 5745 5746 5745 5744 5742 5742 5741 5740 5740 5740 5740 5740 5739 5738 5737 5733 5728 5726 5725 5723 5722 5720 5719 5718 5716 5716 5714 5713 5712 5711 5709 5708 5707 5706 5705 5704 5704 5703 5702 5701
5749 5748 5746 5745 5745 5744 5744 5743 5742 5741 5741 5741 5740 5740 5739 5739 5737 5736 5735 5730 5727 5726 5724 5723 5721 5720 5719 5717 5716 5715 5714 5712 5711 5710 5708 5707 5706 5706 5705 5704 5703 5702 5701
5748 5747 5747 5745 5745 5744 5742 5741 5741 5741 5741 5742 5741 5741 5740 5738 5738 5737 5736 5735 5732 5728 5726 5724 5723 5721 5720 5719 5718 5716 5715 5713 5712 5711 5709 5708 5707 5706 5705 5704 5703 5703 5701
5747 5746 5747 5747 5744 5744 5743 5742 5742 5741 5741 5742 5742 5742 5742 5740 5739 5738 5738 5736 5736 5735 5730 5727 5725 5723 5722 5721 5719 5718 5716 5715 5713 5712 5710 5709 5708 5707 5706 5705 5704 5703 5702
5747 5747 5747 5746 5744 5744 5744 5744 5744 5742 5740 5741 5742 5742 5743 5743 5741 5741 5740 5739 5737 5736 5735 5731 5728 5726 5724 5723 5721 5720 5718 5717 5715 5713 5712 5711 5710 5708 5707 5706 5705 5704 5703
5747 5747 5746 5745 5745 5745 5743 5743 5741 5740 5740 5740 5743 5744 5744 5745 5744 5744 5742 5742 5740 5739 5738 5736 5733 5730 5728 5726 5724 5722 5721 5719 5717 5716 5714 5713 5711 5710 5709 5707 5706 5705 5704
5748 5746 5748 5745 5744 5745 5743 5744 5742 5740 5740 5741 5740 5739 5743 5746 5746 5745 5744 5744 5744 5742 5740 5738 5736 5736 5733 5729 5727 5725 5723 5722 5720 5718 5717 5715 5714 5712 5711 5709 5708 5706 5705
5748 5748 5746 5747 5746 5744 5743 5742 5740 5741 5741 5741 5738 5735 5735 5740 5743 5748 5746 5745 5745 5744 5742 5740 5738 5736 5736 5735 5733 5729 5726 5724 5723 5721 5719 5718 5716 5715 5713 5711 5709 5707 5706
5749 5748 5747 5746 5746 5745 5744 5742 5741 5739 5739 5741 5741 5737 5732 5733 5741 5747 5747 5747 5746 5745 5744 5743 5740 5739 5737 5736 5735 5732 5729 5727 5725 5723 5721 5720 5718 5716 5715 5713 5711 5709 5707
5751 5750 5747 5746 5746 5746 5745 5744 5744 5742 5739 5739 5740 5740 5739 5739 5734 5738 5745 5748 5747 5744 5744 5744 5744 5742 5739 5738 5736 5734 5731 5729 5726 5724 5723 5721 5719 5718 5716 5714 5712 5710 5708
5752 5751 5749 5748 5747 5747 5746 5745 5744 5741 5742 5740 5740 5740 5738 5737 5737 5734 5734 5741 5745 5747 5746 5745 5745 5744 5742 5740 5738 5736 5733 5730 5728 5726 5724 5722 5720 5718 5717 5715 5713 5711 5709
5753 5752 5751 5749 5748 5748 5747 5745 5744 5742 5742 5741 5741 5740 5738 5736 5736 5735 5733 5735 5738 5744 5746 5746 5745 5743 5742 5741 5739 5736 5733 5730 5728 5726 5724 5722 5720 5719 5717 5715 5713 5711 5709
5754 5753 5753 5750 5749 5748 5747 5745 5744 5743 5742 5740 5739 5739 5740 5739 5739 5737 5733 5734 5736 5741 5742 5743 5744 5743 5742 5740 5738 5735 5732 5730 5727 5725 5723 5721 5720 5718 5716 5714 5712 5711 5709
5756 5756 5753 5751 5750 5748 5747 5746 5745 5744 5743 5741 5740 5738 5738 5739 5739 5737 5733 5730 5729 5733 5737 5739 5742 5741 5739 5737 5735 5732 5731 5728 5726 5724 5722 5720 5718 5716 5714 5712 5710 5708 5706
5757 5755 5754 5752 5750 5748 5747 5746 5745 5743 5742 5741 5740 5738 5736 5737 5736 5736 5734 5731 5725 5722 5726 5733 5735 5737 5734 5732 5731 5729 5727 5725 5723 5721 5719 5717 5715 5713 5711 5709 5707 5705 5703
5756 5755 5753 5752 5750 5748 5747 5745 5744 5743 5741 5739 5738 5736 5734 5734 5733 5732 5731 5730 5728 5723 5721 5728 5729 5732 5729 5729 5726 5724 5723 5721 5718 5716 5714 5712 5710 5709 5707 5705 5703 5701 5699
5755 5754 5753 5751 5749 5747 5746 5744 5744 5742 5739 5737 5735 5734 5732 5730 5729 5729 5729 5727 5725 5723 5719 5723 5725 5725 5722 5720 5720 5719 5718 5716 5714 5711 5709 5706 5704 5703 5701 5699 5697 5695 5693
5753 5752 5751 5749 5748 5746 5744 5743 5741 5740 5737 5735 5733 5731 5729 5728 5726 5725 5724 5723 5722 5721 5717 5715 5717 5717 5716 5714 5713 5711 5712 5711 5708 5705 5702 5700 5697 5695 5693 5691 5689 5687 5685
5750 5749 5747 5745 5744 5743 5742 5740 5739 5737 5734 5732 5730 5727 5726 5724 5722 5722 5720 5719 5718 5718 5715 5712 5710 5709 5708 5708 5706 5705 5704 5702 5701 5699 5695 5692 5689 5687 5684 5682 5680 5678 5676
5747 5745 5743 5742 5740 5739 5737 5736 5735 5733 5730 5728 5725 5723 5721 5719 5717 5715 5714 5713 5713 5711 5709 5707 5705 5702 5701 5701 5699 5697 5695 5695 5693 5692 5689 5685 5682 5678 5676 5673 5670 5668 5666
5744 5741 5739 5737 5736 5734 5733 5731 5730 5728 5725 5722 5720 5717 5715 5712 5710 5709 5709 5708 5707 5705 5704 5701 5698 5696 5694 5692 5691 5691 5687 5686 5684 5682 5681 5679 5677 5673 5668 5663 5659 5656 5654
5738 5736 5734 5732 5730 5728 5725 5723 5723 5722 5719 5715 5712 5710 5708 5706 5702 5700 5699 5698 5697 5697 5695 5693 5690 5687 5685 5685 5683 5682 5679 5677 5673 5672 5671 5670 5668 5665 5660 5655 5648 5645 5642
5732 5729 5727 5725 5722 5718 5716 5715 5714 5713 5711 5707 5705 5703 5702 5699 5697 5695 5692 5689 5687 5685 5684 5684 5680 5678 5677 5675 5673 5672 5668 5666 5663 5661 5659 5657 5657 5653 5649 5642 5637 5633 5629
5725 5722 5719 5717 5713 5709 5707 5705 5704 5704 5701 5698 5695 5693 5691 5689 5688 5686 5684 5681 5678 5676 5675 5673 5670 5668 5666 5664 5663 5661 5658 5656 5655 5652 5648 5645 5644 5640 5637 5631 5625 5621 5617
5718 5714 5711 5708 5705 5701 5698 5697 5697 5695 5691 5688 5685 5682 5681 5679 5675 5675 5675 5672 5669 5666 5662 5660 5658 5655 5653 5652 5651 5652 5649 5648 5644 5641 5637 5633 5631 5628 5625 5620 5615 5610 5606
5710 5707 5703 5700 5697 5693 5689 5689 5689 5689 5684 5680 5676 5673 5668 5667 5665 5664 5665 5662 5659 5656 5655 5652 5648 5646 5643 5641 5639 5637 5637 5636 5633 5628 5623 5620 5619 5616 5612 5608 5604 5599 5595